Weather History for YBCS - March, 2012

Change the Weather History Date:

Wednesday, March 28, 2012

  Actual Average (WUND) Record (WUND)
Temperature  
Mean Temperature 78 °F -  
Max Temperature 84 °F 84 °F - (-1)
Min Temperature 71 °F 71 °F - (-1)
Cooling Degree Days 12    
Growing Degree Days 28 (Base 50)    
Moisture  
Dew Point 70 °F    
Average Humidity 79    
Maximum Humidity 100    
Minimum Humidity 51    
Precipitation  
Precipitation 0.02 in 0.31 in - ()
Sea Level Pressure  
Sea Level Pressure 29.88 in    
Wind  
Wind Speed 11 mph ()    
Max Wind Speed 18 mph    
Max Gust Speed 26 mph    
Visibility 6.6 miles    
Events Rain    
Averages and records for this station are not official NWS values.
T = Trace of Precipitation, MM = Missing Value Source: Averaged Metar Reports

Daily Weather History Graph

Daily Weather History Graph

Search for Another Location

Airport or City:

Trip Planner

Search our weather history database for the weather conditions in past years. The results will help you decide how hot, cold, wet, or windy it might be!

Date:

Astronomy

Mar. 28, 2012 Rise Set
Actual Time 6:22 AM AEST 6:21 PM AEST
Civil Twilight 6:00 AM AEST 6:43 PM AEST
Nautical Twilight 5:35 AM AEST 7:08 PM AEST
Astronomical Twilight 5:10 AM AEST 7:33 PM AEST
Moon 10:41 AM AEST 10:07 PM AEST
Length of Visible Light 12h 42m
Length of Day
11h 59m
Waxing Crescent, 25% of the Moon is Illuminated
Mar 28
Waxing Crescent
Mar 31
First Quarter
Apr 7
Full
Apr 13
Last Quarter
Apr 21
New

Hourly Weather History & Observations

Time (AEST) Temp. Heat Index Dew Point Humidity Pressure Visibility Wind Dir Wind Speed Gust Speed Precip Events Conditions
12:00 AM 75 °F - 72 °F 89% 29.92 in - South 9.2 mph - -  
12:00 AM 75.2 °F - 71.6 °F 89% 29.92 in 6.2 mi South 9.2 mph - N/A   Mostly Cloudy
12:30 AM 73.4 °F - 73.4 °F 100% 29.92 in 6.2 mi SE 10.4 mph - N/A Rain Light Rain Showers
12:36 AM 73.4 °F - 71.6 °F 94% 29.92 in 3.7 mi SE 9.2 mph - N/A Rain Light Rain Showers
1:00 AM 73 °F - 72 °F 95% 29.92 in - SSE 15.0 mph - -  
1:00 AM 73.4 °F - 71.6 °F 94% 29.92 in 2.5 mi SSE 15.0 mph - N/A Rain Light Rain Showers
1:30 AM 73.4 °F - 71.6 °F 94% 29.89 in 6.2 mi South 12.7 mph - N/A   Mostly Cloudy
2:00 AM 73.4 °F - 71.6 °F 94% 29.89 in 6.2 mi South 15.0 mph - N/A   Mostly Cloudy
2:30 AM 73.4 °F - 69.8 °F 88% 29.86 in 1.6 mi South 16.1 mph - N/A   Mostly Cloudy
3:00 AM 73 °F - 70 °F 87% 29.88 in - South 16.1 mph - -   Overcast
3:00 AM 73.4 °F - 69.8 °F 88% 29.89 in 6.2 mi South 16.1 mph - N/A   Mostly Cloudy
3:30 AM 73.4 °F - 71.6 °F 94% 29.86 in 3.7 mi South 11.5 mph - N/A Rain Light Rain Showers
4:00 AM 73 °F - 70 °F 87% 29.88 in - South 12.7 mph - -  
4:00 AM 73.4 °F - 69.8 °F 88% 29.86 in 6.2 mi South 12.7 mph - N/A   Mostly Cloudy
4:30 AM 73.4 °F - 69.8 °F 88% 29.86 in 6.2 mi South 12.7 mph - N/A   Mostly Cloudy
5:00 AM 73.4 °F - 69.8 °F 88% 29.86 in 6.2 mi South 12.7 mph - N/A   Mostly Cloudy
5:30 AM 71.6 °F - 69.8 °F 94% 29.89 in 5.0 mi SSE 9.2 mph - N/A   Mostly Cloudy
6:00 AM 73 °F - 69 °F 84% 29.88 in 6 mi South 15.0 mph - -   Mostly Cloudy
6:00 AM 73.4 °F - 69.8 °F 88% 29.86 in 6.2 mi South 15.0 mph 26.5 mph N/A   Mostly Cloudy
6:30 AM 73.4 °F - 69.8 °F 88% 29.89 in 5.0 mi South 12.7 mph - N/A   Mostly Cloudy
7:00 AM 74 °F - 70 °F 84% 29.90 in - SSW 9.2 mph - -  
7:00 AM 75.2 °F - 69.8 °F 83% 29.89 in 6.2 mi SSW 9.2 mph 21.9 mph N/A   Mostly Cloudy
7:30 AM 75.2 °F - 71.6 °F 89% 29.89 in 6.2 mi South 10.4 mph - N/A   Mostly Cloudy
8:00 AM 73.4 °F - 71.6 °F 94% 29.92 in 6.2 mi South 12.7 mph - N/A   Mostly Cloudy
8:30 AM 75.2 °F - 73.4 °F 94% 29.92 in 6.2 mi South 10.4 mph - N/A   Mostly Cloudy
8:52 AM 73.4 °F - 73.4 °F 100% 29.92 in 3.7 mi SE 11.5 mph - N/A Rain Light Rain Showers
9:00 AM 73 °F - 73 °F 99% 29.94 in 4 mi SE 11.5 mph - - Rain Light Rain Showers
9:00 AM 73.4 °F - 73.4 °F 100% 29.95 in 3.7 mi SE 11.5 mph - N/A Rain Light Rain Showers
9:30 AM 73.4 °F - 71.6 °F 94% 29.92 in 6.2 mi South 8.1 mph - N/A   Mostly Cloudy
10:00 AM 75 °F - 71 °F 85% 29.94 in - South 9.2 mph - -  
10:00 AM 75.2 °F - 71.6 °F 89% 29.92 in 6.2 mi South 9.2 mph 20.7 mph N/A   Mostly Cloudy
10:30 AM 77.0 °F - 73.4 °F 89% 29.92 in 6.2 mi South 10.4 mph - N/A   Mostly Cloudy
11:00 AM 78.8 °F - 77.0 °F 94% 29.89 in 6.2 mi SSE 13.8 mph - N/A   Mostly Cloudy
11:30 AM 80.6 °F 88.1 °F 78.8 °F 94% 29.89 in 6.2 mi SSE 13.8 mph - N/A   Mostly Cloudy
12:00 PM 83 °F - 82 °F 94% 29.88 in 16 mi SSE 15.0 mph - -   Partly Cloudy
12:00 PM 82.4 °F 96.1 °F 82.4 °F 100% 29.86 in 6.2 mi SSE 15.0 mph - N/A   Scattered Clouds
12:30 PM 84.2 °F 88.4 °F 69.8 °F 62% 29.86 in 6.2 mi SSE 16.1 mph - N/A   Scattered Clouds
1:00 PM 84 °F - 69 °F 51% 29.85 in - SSE 18.4 mph - -  
1:00 PM 84.2 °F 87.3 °F 68.0 °F 58% 29.83 in 6.2 mi SSE 18.4 mph - N/A   Scattered Clouds
1:30 PM 84.2 °F 88.4 °F 69.8 °F 62% 29.83 in 6.2 mi SE 17.3 mph - N/A   Partly Cloudy
2:00 PM 84.2 °F 87.3 °F 68.0 °F 58% 29.83 in 6.2 mi SSE 16.1 mph - N/A   Partly Cloudy
2:30 PM 84.2 °F 87.3 °F 68.0 °F 58% 29.80 in 6.2 mi SE 17.3 mph - N/A   Partly Cloudy
3:00 PM 84 °F - 69 °F 53% 29.81 in 19 mi SE 16.1 mph - -   Partly Cloudy
3:00 PM 84.2 °F 88.4 °F 69.8 °F 62% 29.80 in 6.2 mi SE 16.1 mph - N/A   Partly Cloudy
3:30 PM 84.2 °F 87.3 °F 68.0 °F 58% 29.80 in 6.2 mi SE 17.3 mph - N/A   Partly Cloudy
4:00 PM 83 °F - 68 °F 51% 29.81 in - SE 16.1 mph - -  
4:00 PM 84.2 °F 87.3 °F 68.0 °F 58% 29.80 in 6.2 mi SE 16.1 mph - N/A   Partly Cloudy
4:30 PM 82.4 °F 85.4 °F 68.0 °F 62% 29.80 in 6.2 mi ESE 17.3 mph - N/A   Partly Cloudy
5:00 PM 82.4 °F 85.4 °F 68.0 °F 62% 29.83 in 6.2 mi SE 17.3 mph - N/A   Partly Cloudy
5:30 PM 80.6 °F 83.2 °F 68.0 °F 65% 29.83 in 6.2 mi SE 15.0 mph - N/A   Partly Cloudy
6:00 PM 79 °F - 68 °F 62% 29.85 in 19 mi SE 11.5 mph - -   Partly Cloudy
6:00 PM 78.8 °F - 68.0 °F 69% 29.83 in 6.2 mi SE 11.5 mph - N/A   Partly Cloudy
6:30 PM 77.0 °F - 66.2 °F 69% 29.86 in 6.2 mi South 6.9 mph - N/A   Partly Cloudy
7:00 PM 77 °F - 67 °F 64% 29.88 in - South 8.1 mph - -  
7:00 PM 77.0 °F - 68.0 °F 74% 29.86 in 6.2 mi South 8.1 mph - N/A   Partly Cloudy
7:30 PM 77.0 °F - 68.0 °F 74% 29.89 in 6.2 mi South 8.1 mph - N/A   Scattered Clouds
8:00 PM 77.0 °F - 68.0 °F 74% 29.89 in 6.2 mi South 11.5 mph - N/A   Mostly Cloudy
8:30 PM 77.0 °F - 68.0 °F 74% 29.89 in 6.2 mi South 8.1 mph - N/A   Mostly Cloudy
9:00 PM 77 °F - 67 °F 65% 29.91 in 19 mi South 6.9 mph - -   Partly Cloudy
9:00 PM 77.0 °F - 68.0 °F 74% 29.89 in 6.2 mi South 6.9 mph - N/A   Mostly Cloudy
9:30 PM 77.0 °F - 68.0 °F 74% 29.89 in 6.2 mi SSW 6.9 mph - N/A   Mostly Cloudy
10:00 PM 78 °F - 66 °F 59% 29.92 in - South 8.1 mph - -  
10:00 PM 78.8 °F - 66.2 °F 65% 29.89 in 6.2 mi South 8.1 mph - N/A   Scattered Clouds
10:30 PM 77.0 °F - 68.0 °F 74% 29.92 in 6.2 mi SSE 10.4 mph - N/A   Mostly Cloudy
11:00 PM 75.2 °F - 69.8 °F 83% 29.89 in 6.2 mi SE 9.2 mph - N/A   Mostly Cloudy
11:30 PM 77.0 °F - 68.0 °F 74% 29.89 in 6.2 mi South 11.5 mph - N/A   Mostly Cloudy